Rice Lake, WI

2:53 AM CDT on May 30, 2017 (GMT -0500)
Rice Lake Regional-Carl's

Weather History for KRPD - January, 2014

Change the Weather History Date:

Thursday, January 9, 2014

  Actual Average Record
Temperature  
Mean Temperature -7 °F -  
Max Temperature 16 °F 20 °F 27 °F (2016)
Min Temperature -30 °F 5 °F -5 °F (2015)
Degree Days  
Heating Degree Days 72    
Moisture  
Dew Point -9 °F    
Average Humidity 73    
Maximum Humidity 88    
Minimum Humidity 56    
Precipitation  
Precipitation 0.00 in - - ()
Sea Level Pressure  
Sea Level Pressure 30.20 in    
Wind  
Wind Speed 5 mph (SE)    
Max Wind Speed 14 mph    
Max Gust Speed 17 mph    
Visibility 10 miles    
Events      
Averages and records for this station are not official NWS values.
T = Trace of Precipitation, MM = Missing Value Source: NWS Daily Summary

Daily Weather History Graph

Daily Weather History Graph

Search for Another Location

Airport or City:

Trip Planner

Search our weather history database for the weather conditions in past years. The results will help you decide how hot, cold, wet, or windy it might be!

Date:

Astronomy

Jan. 09, 2014 Rise Set
Actual Time 7:45 AM CST 4:43 PM CST
Civil Twilight 7:12 AM CST 5:16 PM CST
Nautical Twilight 6:35 AM CST 5:53 PM CST
Astronomical Twilight 5:59 AM CST 6:29 PM CST
Moon 12:16 PM CST (1/9) 1:46 AM CST (1/9)
Length of Visible Light 10h 04m
Length of Day
8h 57m
Waxing Gibbous, 66% of the Moon is Illuminated
Jan 9
Waxing Gibbous
Jan 15
Full
Jan 23
Last Quarter
Jan 30
New
Feb 6
First Quarter

Hourly Weather History & Observations

Time (CST) Temp. Windchill Dew Point Humidity Pressure Visibility Wind Dir Wind Speed Gust Speed Precip Events Conditions
12:15 AM -28.5 °F - -35.7 °F 68% 30.42 in 10.0 mi Calm Calm - N/A   Clear
12:35 AM -25.1 °F - -31.5 °F 72% 30.42 in 10.0 mi Calm Calm - N/A   Clear
12:55 AM -28.3 °F - -35.5 °F 68% 30.42 in 10.0 mi Calm Calm - N/A   Clear
1:15 AM -28.3 °F - -35.7 °F 68% 30.41 in 10.0 mi Calm Calm - N/A   Clear
1:35 AM -27.9 °F - -35.1 °F 68% 30.40 in 7.0 mi Calm Calm - N/A   Clear
1:55 AM -28.7 °F - -36.6 °F 66% 30.39 in 10.0 mi Calm Calm - N/A   Clear
2:15 AM -29.4 °F - -36.6 °F 68% 30.39 in 10.0 mi Calm Calm - N/A   Clear
2:35 AM -30.5 °F -42.6 °F -38.2 °F 66% 30.40 in 10.0 mi SW 3.5 mph - N/A   Clear
2:55 AM -28.5 °F - -35.3 °F 70% 30.41 in 10.0 mi Calm Calm - N/A   Clear
3:15 AM -27.4 °F - -34.4 °F 69% 30.41 in 10.0 mi Calm Calm - N/A   Clear
3:35 AM -28.8 °F - -36.0 °F 68% 30.39 in 10.0 mi Calm Calm - N/A   Clear
3:55 AM -29.4 °F - -36.8 °F 68% 30.39 in 10.0 mi Calm Calm - N/A   Clear
4:15 AM -29.6 °F - -36.6 °F 69% 30.38 in 10.0 mi Calm Calm - N/A   Clear
4:35 AM -28.5 °F -40.4 °F -35.3 °F 70% 30.36 in 10.0 mi ESE 3.5 mph - N/A   Clear
4:55 AM -29.0 °F - -36.6 °F 67% 30.37 in 10.0 mi Calm Calm - N/A   Clear
5:15 AM -20.4 °F -40.3 °F -24.9 °F 80% 30.33 in 10.0 mi ESE 9.2 mph - N/A   Scattered Clouds
5:35 AM -15.0 °F -29.3 °F -20.4 °F 77% 30.34 in 10.0 mi SE 5.8 mph - N/A   Overcast
5:55 AM -13.0 °F -30.0 °F -18.4 °F 77% 30.33 in 10.0 mi SE 8.1 mph - N/A   Overcast
6:15 AM -11.2 °F -27.8 °F -16.2 °F 78% 30.32 in 10.0 mi SE 8.1 mph - N/A   Overcast
6:35 AM -9.4 °F -22.7 °F -14.8 °F 77% 30.32 in 10.0 mi SE 5.8 mph - N/A   Overcast
6:55 AM -8.7 °F -17.8 °F -14.1 °F 77% 30.32 in 10.0 mi SE 3.5 mph - N/A   Overcast
7:15 AM -8.5 °F -24.5 °F -14.1 °F 77% 30.32 in 10.0 mi SE 8.1 mph - N/A   Overcast
7:35 AM -8.1 °F -22.7 °F -13.4 °F 78% 30.31 in 10.0 mi SE 6.9 mph - N/A   Overcast
7:55 AM -8.0 °F -21.0 °F -13.2 °F 78% 30.30 in 10.0 mi ESE 5.8 mph - N/A   Overcast
8:15 AM -7.1 °F -19.9 °F -12.3 °F 78% 30.30 in 10.0 mi ESE 5.8 mph - N/A   Overcast
8:35 AM -6.2 °F -21.7 °F -11.2 °F 79% 30.30 in 10.0 mi ESE 8.1 mph - N/A   Overcast
8:55 AM -5.1 °F -20.4 °F -10.5 °F 78% 30.29 in 10.0 mi ESE 8.1 mph - N/A   Overcast
9:15 AM -4.5 °F -21.9 °F -10.3 °F 76% 30.28 in 10.0 mi SE 10.4 mph - N/A   Overcast
9:35 AM -3.6 °F -19.7 °F -9.4 °F 76% 30.28 in 10.0 mi ESE 9.2 mph - N/A   Overcast
9:55 AM -3.1 °F -19.1 °F -9.4 °F 74% 30.28 in 10.0 mi SE 9.2 mph - N/A   Overcast
10:15 AM -3.1 °F -21.0 °F -9.4 °F 74% 30.28 in 10.0 mi SE 11.5 mph - N/A   Overcast
10:35 AM -1.8 °F -17.5 °F -8.7 °F 73% 30.26 in 10.0 mi SE 9.2 mph - N/A   Overcast
10:55 AM -1.1 °F -18.5 °F -8.1 °F 72% 30.25 in 10.0 mi ESE 11.5 mph - N/A   Overcast
11:15 AM 0.1 °F -16.0 °F -7.6 °F 70% 30.23 in 10.0 mi SE 10.4 mph - N/A   Scattered Clouds
11:35 AM 2.1 °F -14.4 °F -6.5 °F 67% 30.22 in 10.0 mi SE 11.5 mph - N/A   Clear
11:55 AM 4.3 °F -11.7 °F -5.3 °F 65% 30.20 in 10.0 mi SE 11.5 mph - N/A   Clear
12:15 PM 5.7 °F -10.7 °F -4.7 °F 62% 30.18 in 10.0 mi SE 12.7 mph 17.3 mph N/A   Clear
12:35 PM 6.6 °F -10.2 °F -4.0 °F 62% 30.17 in 10.0 mi SE 13.8 mph 17.3 mph N/A   Clear
12:55 PM 7.7 °F -7.4 °F -3.6 °F 60% 30.16 in 10.0 mi SE 11.5 mph - N/A   Clear
1:15 PM 8.1 °F -6.2 °F -3.1 °F 60% 30.15 in 10.0 mi SE 10.4 mph - N/A   Clear
1:35 PM 9.9 °F -4.7 °F -2.0 °F 59% 30.14 in 10.0 mi SE 11.5 mph 17.3 mph N/A   Clear
1:55 PM 11.3 °F -2.9 °F -1.5 °F 57% 30.13 in 10.0 mi SE 11.5 mph - N/A   Clear
2:15 PM 12.0 °F -0.4 °F -0.9 °F 56% 30.13 in 10.0 mi SSE 9.2 mph - N/A   Clear
2:55 PM 12.2 °F -1.8 °F -0.0 °F 58% 30.12 in 10.0 mi SE 11.5 mph - N/A   Clear
3:15 PM 12.0 °F -2.0 °F -0.4 °F 58% 30.13 in 10.0 mi SSE 11.5 mph - N/A   Scattered Clouds
3:35 PM 12.0 °F -0.4 °F 0.5 °F 60% 30.12 in 10.0 mi SE 9.2 mph - N/A   Mostly Cloudy
3:55 PM 12.2 °F -1.0 °F 0.7 °F 60% 30.10 in 10.0 mi SE 10.4 mph - N/A   Overcast
4:15 PM 12.4 °F -1.6 °F 1.8 °F 63% 30.10 in 10.0 mi SE 11.5 mph - N/A   Overcast
5:35 PM 14.0 °F 1.2 °F 6.4 °F 72% 30.06 in 10.0 mi SE 10.4 mph - N/A   Overcast
5:55 PM 14.0 °F -0.8 °F 6.4 °F 72% 30.04 in 10.0 mi SE 13.8 mph - N/A   Mostly Cloudy
6:15 PM 14.0 °F 1.2 °F 6.8 °F 73% 30.04 in 10.0 mi SE 10.4 mph 16.1 mph N/A   Scattered Clouds
6:35 PM 13.8 °F -0.5 °F 6.6 °F 73% 30.03 in 10.0 mi SE 12.7 mph - N/A   Clear
6:55 PM 13.8 °F 0.2 °F 6.6 °F 73% 30.03 in 10.0 mi SE 11.5 mph - N/A   Clear
7:15 PM 13.5 °F -0.2 °F 7.2 °F 76% 30.02 in 10.0 mi SE 11.5 mph - N/A   Clear
7:35 PM 13.5 °F 0.5 °F 7.9 °F 78% 30.01 in 10.0 mi SE 10.4 mph - N/A   Clear
7:55 PM 13.1 °F 0.9 °F 8.4 °F 82% 30.01 in 10.0 mi SE 9.2 mph - N/A   Clear
8:15 PM 13.5 °F 3.3 °F 8.6 °F 81% 30.01 in 10.0 mi SE 6.9 mph - N/A   Mostly Cloudy
8:35 PM 13.1 °F 2.8 °F 9.0 °F 84% 30.01 in 10.0 mi SE 6.9 mph - N/A   Mostly Cloudy
8:55 PM 13.8 °F 1.8 °F 10.0 °F 85% 30.00 in 10.0 mi SE 9.2 mph - N/A   Overcast
9:15 PM 14.9 °F 2.3 °F 10.9 °F 84% 30.00 in 10.0 mi SE 10.4 mph - N/A   Overcast
9:35 PM 15.4 °F 2.3 °F 11.3 °F 84% 29.99 in 10.0 mi SE 11.5 mph - N/A   Mostly Cloudy
9:55 PM 15.3 °F 0.8 °F 10.9 °F 83% 29.99 in 10.0 mi SE 13.8 mph - N/A   Scattered Clouds
10:15 PM 15.3 °F 0.8 °F 10.9 °F 83% 29.98 in 10.0 mi SE 13.8 mph - N/A   Scattered Clouds
10:35 PM 15.3 °F 2.0 °F 11.1 °F 84% 29.98 in 10.0 mi SSE 11.5 mph - N/A   Overcast
10:55 PM 15.8 °F 2.7 °F 11.8 °F 84% 29.97 in 10.0 mi SE 11.5 mph 17.3 mph N/A   Overcast
11:15 PM 16.0 °F 2.9 °F 12.4 °F 86% 29.97 in 7.0 mi SE 11.5 mph - N/A   Overcast
11:35 PM 16.3 °F 2.7 °F 13.1 °F 87% 29.97 in 7.0 mi SE 12.7 mph 17.3 mph N/A   Overcast
11:55 PM 16.5 °F 3.6 °F 13.5 °F 88% 29.96 in 7.0 mi SE 11.5 mph - N/A   Overcast